Retour au catalogue

QIANFAN-188

ActifCommunicationsPO
NORAD 69406·PAYLOAD·🇨🇳 China

Lancé Jun 5, 2026 depuis Wenchang Space Launch Site

Loading…

Prochains Passages (prochaines 24 heures)

TLE

FraisSource: Space-Track

Époque: Sep 14, 2026, 22:05 UTC

1 69406U 26125F   26257.92073772  .00000026  00000-0  21030-4 0  9998
2 69406  88.9883 270.8834 0001976 103.2824 256.8547 13.51029282 14067

Suivez QIANFAN-188 en temps réel avec AllMySat

Download on the App Store